Regional Weather Roundup
Issued by NWS Albany, NY

Home | Current Version | Previous Version | Text Only | Print | Product List | Glossary On
Versions: 1 2 3 4 5 6 7 8 9 10 11 12 13 14 15 16 17 18 19 20 21 22 23 24 25 26
000
ASUS41 KALY 260810
RWRALY

NEW YORK STATE HOURLY WEATHER ROUNDUP
NATIONAL WEATHER SERVICE ALBANY NY
400 AM EDT THU MAY 26 2016

NOTE: "FAIR" INDICATES FEW OR NO CLOUDS BELOW 12,000 FEET WITH NO
SIGNIFICANT WEATHER AND/OR NO OBSTRUCTIONS TO VISIBILITY.

NYZ032-033-038>043-046>054-057>066-NYZ062>081-082-084-260900-
EAST


CITY           SKY/WX    TMP DP  RH WIND       PRES   REMARKS
ALBANY         CLOUDY    60  54  80 NE3       30.07R
GLENS FALLS    PTCLDY    55  51  86 N5        30.08R
POUGHKEEPSIE   CLOUDY    59  55  87 CALM      30.06S
NEWBURGH       CLEAR     63  55  77 CALM      30.09R
MONTGOMERY     PTCLDY    58  55  90 CALM      30.08R
WHITE PLAINS   CLOUDY    63  53  70 NW7       30.07R
ISLIP          CLOUDY    59  54  83 CALM      30.07R
NEW YORK CITY  MOCLDY    76  54  46 W5        30.06S
CENTRAL PARK   CLOUDY    73  48  41 W3        30.10R
$$

NYZ005>009-017-018-044>046-055-056-260900-
CENTRAL


CITY           SKY/WX    TMP DP  RH WIND       PRES   REMARKS
FULTON         CLOUDY    60  55  83 CALM      30.05S
SYRACUSE       CLOUDY    60  55  83 SE3       30.05S
ROME           PTCLDY    56  54  93 SE3       30.08R
ELMIRA         CLOUDY    54  51  90 CALM      30.10S
BINGHAMTON     PTCLDY    64  51  62 W5        30.11S
MONTICELLO     CLEAR     55  54  94 CALM      30.14R
$$

NYZ026>034-041>043-087-260900-
NORTH


CITY           SKY/WX    TMP DP  RH WIND       PRES   REMARKS
WATERTOWN      PTCLDY    54  52  93 CALM      30.05S
FORT DRUM      NOT AVBL
MASSENA        MOCLDY    54  51  90 CALM      30.10R
SARANAC LAKE   CLOUDY    47  44  90 CALM      30.10R
PLATTSBURGH    CLOUDY    55  52  89 W5        30.08R
$$

NYZ001>004-010>016-019>021-085-260900-
WEST


CITY           SKY/WX    TMP DP  RH WIND       PRES   REMARKS
NIAGARA FALLS  MOCLDY    64  51  62 SW3       30.04F
BUFFALO        CLOUDY    63  51  65 SE6       30.05F
DUNKIRK        CLOUDY    70  54  56 S8        30.06S
JAMESTOWN      CLOUDY    63  50  63 S6        30.11F
WELLSVILLE     CLOUDY    63  49  60 W5        30.15S
ROCHESTER      CLOUDY    65  52  62 N3        30.06S
PENN YAN       PTCLDY    62  52  69 SW6       30.09S
$$

             KEY
       WCI = WIND CHILL INDEX
       VSB = VISIBILITY
       HX  = HEAT INDEX
$$




USA.gov is the U.S. government's official web portal to all federal, state and local government web resources and services.